Time,TemperatureF,DewpointF,PressureIn,WindDirection,WindDirectionDegrees,WindSpeedMPH,WindSpeedGustMPH,Humidity,HourlyPrecipIn,Conditions,Clouds,dailyrainin,SolarRadiationWatts/m^2,SoftwareType,DateUTC
2013-05-07 00:03:00,52.0,47.0,29.04,WSW,239,1.0,8.0,84,0.00,,,0.52,0.000000,,2013-05-07 04:03:00,
2013-05-07 00:10:00,50.0,47.0,29.03,SW,217,1.0,4.0,89,0.00,,,0.34,0.000000,,2013-05-07 04:10:00,
2013-05-07 00:42:00,50.0,47.0,29.03,SW,217,1.0,4.0,89,0.00,,,0.34,0.000000,,2013-05-07 04:42:00,
2013-05-07 00:53:00,50.0,47.0,29.03,SW,217,1.0,4.0,89,0.00,,,0.34,0.000000,,2013-05-07 04:53:00,
2013-05-07 01:02:00,50.0,47.0,29.03,SW,217,1.0,4.0,89,0.00,,,0.34,0.000000,,2013-05-07 05:02:00,
2013-05-07 01:10:00,47.0,45.0,29.04,West,263,1.0,7.0,93,0.00,,,0.11,0.000000,,2013-05-07 05:10:00,
2013-05-07 01:32:00,47.0,45.0,29.04,West,263,1.0,7.0,93,0.00,,,0.11,0.000000,,2013-05-07 05:32:00,
2013-05-07 01:42:00,47.0,45.0,29.04,West,263,1.0,7.0,93,0.00,,,0.11,0.000000,,2013-05-07 05:42:00,
2013-05-07 01:52:00,47.0,45.0,29.04,West,263,1.0,7.0,93,0.00,,,0.11,0.000000,,2013-05-07 05:52:00,
2013-05-07 02:02:00,47.0,45.0,29.04,West,263,1.0,7.0,93,0.00,,,0.11,0.000000,,2013-05-07 06:02:00,
2013-05-07 02:10:00,47.0,46.0,29.03,ESE,121,0.0,3.0,95,0.00,,,0.01,0.000000,,2013-05-07 06:10:00,
2013-05-07 02:32:00,47.0,46.0,29.03,ESE,121,0.0,3.0,95,0.00,,,0.01,0.000000,,2013-05-07 06:32:00,
2013-05-07 02:42:00,47.0,46.0,29.03,ESE,121,0.0,3.0,95,0.00,,,0.01,0.000000,,2013-05-07 06:42:00,
2013-05-07 02:52:00,47.0,46.0,29.03,ESE,121,0.0,3.0,95,0.00,,,0.01,0.000000,,2013-05-07 06:52:00,
2013-05-07 03:02:00,47.0,46.0,29.03,ESE,121,0.0,3.0,95,0.00,,,0.01,0.000000,,2013-05-07 07:02:00,
2013-05-07 03:10:00,44.0,43.0,29.02,ESE,123,1.0,4.0,96,0.00,,,0.01,0.000000,,2013-05-07 07:10:00,
2013-05-07 03:42:00,44.0,43.0,29.02,ESE,123,1.0,4.0,96,0.00,,,0.01,0.000000,,2013-05-07 07:42:00,
2013-05-07 03:53:00,44.0,43.0,29.02,ESE,123,1.0,4.0,96,0.00,,,0.01,0.000000,,2013-05-07 07:53:00,
2013-05-07 04:02:00,44.0,43.0,29.02,ESE,123,1.0,4.0,96,0.00,,,0.01,0.000000,,2013-05-07 08:02:00,
2013-05-07 04:10:00,43.0,42.0,29.02,NW,319,2.0,3.0,96,0.00,,,0.01,0.000000,,2013-05-07 08:10:00,
2013-05-07 04:32:00,43.0,42.0,29.02,NW,319,2.0,3.0,96,0.00,,,0.01,0.000000,,2013-05-07 08:32:00,
2013-05-07 04:42:00,43.0,42.0,29.02,NW,319,2.0,3.0,96,0.00,,,0.01,0.000000,,2013-05-07 08:42:00,
2013-05-07 04:52:00,43.0,42.0,29.02,NW,319,2.0,3.0,96,0.00,,,0.01,0.000000,,2013-05-07 08:52:00,
2013-05-07 05:01:00,43.0,42.0,29.02,NW,319,2.0,3.0,96,0.00,,,0.01,0.000000,,2013-05-07 09:01:00,
2013-05-07 05:10:00,42.0,41.0,29.02,NNW,330,2.0,5.0,96,0.00,,,0.01,0.000000,,2013-05-07 09:10:00,
2013-05-07 05:33:00,42.0,41.0,29.02,NNW,330,2.0,5.0,96,0.00,,,0.01,0.000000,,2013-05-07 09:33:00,
2013-05-07 05:43:00,42.0,41.0,29.02,NNW,330,2.0,5.0,96,0.00,,,0.01,0.000000,,2013-05-07 09:43:00,
2013-05-07 05:52:00,42.0,41.0,29.02,NNW,330,2.0,5.0,96,0.00,,,0.01,0.000000,,2013-05-07 09:52:00,
2013-05-07 06:03:00,42.0,41.0,29.02,NNW,330,2.0,5.0,96,0.00,,,0.01,0.000000,,2013-05-07 10:03:00,
2013-05-07 06:10:00,42.0,41.0,29.02,SSW,197,1.0,3.0,97,0.00,,,0.01,0.000000,,2013-05-07 10:10:00,
2013-05-07 06:33:00,42.0,41.0,29.02,SSW,197,1.0,3.0,97,0.00,,,0.01,0.000000,,2013-05-07 10:33:00,
2013-05-07 06:42:00,42.0,41.0,29.02,SSW,197,1.0,3.0,97,0.00,,,0.01,0.000000,,2013-05-07 10:42:00,
2013-05-07 06:52:00,42.0,41.0,29.02,SSW,197,1.0,3.0,97,0.00,,,0.01,0.000000,,2013-05-07 10:52:00,
2013-05-07 07:02:00,42.0,41.0,29.02,SSW,197,1.0,3.0,97,0.00,,,0.01,0.000000,,2013-05-07 11:02:00,
2013-05-07 07:10:00,43.0,42.0,29.04,WNW,301,2.0,3.0,97,0.00,,,0.01,0.000000,,2013-05-07 11:10:00,
2013-05-07 07:32:00,43.0,42.0,29.04,WNW,301,2.0,3.0,97,0.00,,,0.01,0.000000,,2013-05-07 11:32:00,
2013-05-07 07:42:00,43.0,42.0,29.04,WNW,301,2.0,3.0,97,0.00,,,0.01,0.000000,,2013-05-07 11:42:00,
2013-05-07 07:52:00,43.0,42.0,29.04,WNW,301,2.0,3.0,97,0.00,,,0.01,0.000000,,2013-05-07 11:52:00,
2013-05-07 08:02:00,43.0,42.0,29.04,WNW,301,2.0,3.0,97,0.00,,,0.01,0.000000,,2013-05-07 12:02:00,
2013-05-07 08:10:00,47.0,46.0,29.05,West,280,1.0,3.0,96,0.00,,,-99.99,3.000000,,2013-05-07 12:10:00,
2013-05-07 08:32:00,47.0,46.0,29.05,West,280,1.0,3.0,96,0.00,,,-99.99,3.000000,,2013-05-07 12:32:00,
2013-05-07 08:42:00,47.0,46.0,29.05,West,280,1.0,3.0,96,0.00,,,-99.99,3.000000,,2013-05-07 12:42:00,
2013-05-07 08:52:00,47.0,46.0,29.05,West,280,1.0,3.0,96,0.00,,,-99.99,3.000000,,2013-05-07 12:52:00,
2013-05-07 09:02:00,47.0,46.0,29.05,West,280,1.0,3.0,96,0.00,,,-99.99,3.000000,,2013-05-07 13:02:00,
2013-05-07 09:10:00,53.0,48.0,29.05,NE,35,1.0,3.0,82,0.00,,,-99.99,81.000000,,2013-05-07 13:10:00,
2013-05-07 09:42:00,53.0,48.0,29.05,NE,35,1.0,3.0,82,0.00,,,-99.99,81.000000,,2013-05-07 13:42:00,
2013-05-07 09:52:00,53.0,48.0,29.05,NE,35,1.0,3.0,82,0.00,,,-99.99,81.000000,,2013-05-07 13:52:00,
2013-05-07 10:02:00,53.0,48.0,29.05,NE,35,1.0,3.0,82,0.00,,,-99.99,81.000000,,2013-05-07 14:02:00,
2013-05-07 10:10:00,63.0,51.0,29.05,NE,35,2.0,5.0,65,0.00,,,0.01,212.000000,,2013-05-07 14:10:00,
2013-05-07 10:42:00,63.0,51.0,29.05,NE,35,2.0,5.0,65,0.00,,,0.01,212.000000,,2013-05-07 14:42:00,
2013-05-07 10:52:00,63.0,51.0,29.05,NE,35,2.0,5.0,65,0.00,,,0.01,212.000000,,2013-05-07 14:52:00,
2013-05-07 11:01:00,63.0,51.0,29.05,NE,35,2.0,5.0,65,0.00,,,0.01,212.000000,,2013-05-07 15:01:00,
2013-05-07 11:10:00,71.0,46.0,29.05,South,178,3.0,35.0,41,0.00,,,0.01,403.000000,,2013-05-07 15:10:00,
2013-05-07 11:33:00,71.0,46.0,29.05,South,178,3.0,35.0,41,0.00,,,0.01,403.000000,,2013-05-07 15:33:00,
2013-05-07 11:43:00,71.0,46.0,29.05,South,178,3.0,35.0,41,0.00,,,0.01,403.000000,,2013-05-07 15:43:00,
2013-05-07 11:53:00,71.0,46.0,29.05,South,178,3.0,35.0,41,0.00,,,0.01,403.000000,,2013-05-07 15:53:00,
2013-05-07 12:03:00,71.0,46.0,29.05,South,178,3.0,35.0,41,0.00,,,0.01,403.000000,,2013-05-07 16:03:00,
2013-05-07 14:10:00,76.0,45.0,29.01,SSE,147,6.0,16.0,33,-99.99,,,0.00,1179.000000,,2013-05-07 18:10:00,
2013-05-07 14:42:00,76.0,45.0,29.01,SSE,147,6.0,16.0,33,-99.99,,,0.00,1179.000000,,2013-05-07 18:42:00,
2013-05-07 14:52:00,76.0,45.0,29.01,SSE,147,6.0,16.0,33,-99.99,,,0.00,1179.000000,,2013-05-07 18:52:00,
2013-05-07 15:02:00,76.0,45.0,29.01,SSE,147,6.0,16.0,33,-99.99,,,0.00,1179.000000,,2013-05-07 19:02:00,
2013-05-07 16:10:00,60.0,54.0,29.02,NW,305,4.0,18.0,81,-99.99,,,0.03,1007.000000,,2013-05-07 20:10:00,
2013-05-07 16:42:00,60.0,54.0,29.02,NW,305,4.0,18.0,81,-99.99,,,0.03,1007.000000,,2013-05-07 20:42:00,
2013-05-07 16:52:00,60.0,54.0,29.02,NW,305,4.0,18.0,81,-99.99,,,0.03,1007.000000,,2013-05-07 20:52:00,
2013-05-07 17:02:00,60.0,54.0,29.02,NW,305,4.0,18.0,81,-99.99,,,0.03,1007.000000,,2013-05-07 21:02:00,
2013-05-07 17:10:00,57.0,51.0,29.03,North,10,3.0,14.0,81,0.04,,,0.07,174.000000,,2013-05-07 21:10:00,
2013-05-07 17:33:00,57.0,51.0,29.03,North,10,3.0,14.0,81,0.04,,,0.07,174.000000,,2013-05-07 21:33:00,
2013-05-07 17:43:00,57.0,51.0,29.03,North,10,3.0,14.0,81,0.04,,,0.07,174.000000,,2013-05-07 21:43:00,
2013-05-07 17:53:00,57.0,51.0,29.03,North,10,3.0,14.0,81,0.04,,,0.07,174.000000,,2013-05-07 21:53:00,
2013-05-07 18:02:00,57.0,51.0,29.03,North,10,3.0,14.0,81,0.04,,,0.07,174.000000,,2013-05-07 22:02:00,
2013-05-07 18:10:00,57.0,54.0,29.04,WSW,242,1.0,10.0,89,0.02,,,0.09,137.000000,,2013-05-07 22:10:00,
2013-05-07 18:33:00,57.0,54.0,29.04,WSW,242,1.0,10.0,89,0.02,,,0.09,137.000000,,2013-05-07 22:33:00,
2013-05-07 18:42:00,57.0,54.0,29.04,WSW,242,1.0,10.0,89,0.02,,,0.09,137.000000,,2013-05-07 22:42:00,
2013-05-07 18:52:00,57.0,54.0,29.04,WSW,242,1.0,10.0,89,0.02,,,0.09,137.000000,,2013-05-07 22:52:00,
2013-05-07 19:02:00,57.0,54.0,29.04,WSW,242,1.0,10.0,89,0.02,,,0.09,137.000000,,2013-05-07 23:02:00,
2013-05-07 19:10:00,58.0,54.0,29.05,NNW,337,2.0,6.0,86,0.00,,,0.09,120.000000,,2013-05-07 23:10:00,
2013-05-07 19:32:00,58.0,54.0,29.05,NNW,337,2.0,6.0,86,0.00,,,0.09,120.000000,,2013-05-07 23:32:00,
2013-05-07 19:42:00,58.0,54.0,29.05,NNW,337,2.0,6.0,86,0.00,,,0.09,120.000000,,2013-05-07 23:42:00,
2013-05-07 19:52:00,58.0,54.0,29.05,NNW,337,2.0,6.0,86,0.00,,,0.09,120.000000,,2013-05-07 23:52:00,
2013-05-07 20:02:00,58.0,54.0,29.05,NNW,337,2.0,6.0,86,0.00,,,0.09,120.000000,,2013-05-08 00:02:00,
2013-05-07 20:10:00,58.0,54.0,29.05,NNE,29,2.0,4.0,85,0.00,,,-99.99,95.000000,,2013-05-08 00:10:00,
2013-05-07 20:42:00,58.0,54.0,29.05,NNE,29,2.0,4.0,85,0.00,,,-99.99,95.000000,,2013-05-08 00:42:00,
2013-05-07 20:52:00,58.0,54.0,29.05,NNE,29,2.0,4.0,85,0.00,,,-99.99,95.000000,,2013-05-08 00:52:00,
2013-05-07 21:02:00,58.0,54.0,29.05,NNE,29,2.0,4.0,85,0.00,,,-99.99,95.000000,,2013-05-08 01:02:00,
2013-05-07 21:10:00,54.0,52.0,29.08,South,190,2.0,4.0,94,0.00,,,0.09,76.000000,,2013-05-08 01:10:00,
2013-05-07 21:32:00,54.0,52.0,29.08,South,190,2.0,4.0,94,0.00,,,0.09,76.000000,,2013-05-08 01:32:00,
2013-05-07 21:42:00,54.0,52.0,29.08,South,190,2.0,4.0,94,0.00,,,0.09,76.000000,,2013-05-08 01:42:00,
2013-05-07 21:52:00,54.0,52.0,29.08,South,190,2.0,4.0,94,0.00,,,0.09,76.000000,,2013-05-08 01:52:00,
2013-05-07 22:02:00,54.0,52.0,29.08,South,190,2.0,4.0,94,0.00,,,0.09,76.000000,,2013-05-08 02:02:00,
2013-05-07 22:10:00,55.0,54.0,29.08,NW,311,0.0,6.0,96,0.00,,,0.09,2.000000,,2013-05-08 02:10:00,
2013-05-07 22:32:00,55.0,54.0,29.08,NW,311,0.0,6.0,96,0.00,,,0.09,2.000000,,2013-05-08 02:32:00,
2013-05-07 22:42:00,55.0,54.0,29.08,NW,311,0.0,6.0,96,0.00,,,0.09,2.000000,,2013-05-08 02:42:00,
2013-05-07 22:52:00,55.0,54.0,29.08,NW,311,0.0,6.0,96,0.00,,,0.09,2.000000,,2013-05-08 02:52:00,
2013-05-07 23:02:00,55.0,54.0,29.08,NW,311,0.0,6.0,96,0.00,,,0.09,2.000000,,2013-05-08 03:02:00,
2013-05-07 23:10:00,54.0,53.0,29.09,NNE,26,1.0,3.0,96,0.00,,,0.09,0.000000,,2013-05-08 03:10:00,
2013-05-07 23:33:00,54.0,53.0,29.09,NNE,26,1.0,3.0,96,0.00,,,0.09,0.000000,,2013-05-08 03:33:00,
2013-05-07 23:43:00,54.0,53.0,29.09,NNE,26,1.0,3.0,96,0.00,,,0.09,0.000000,,2013-05-08 03:43:00,
2013-05-07 23:52:00,54.0,53.0,29.09,NNE,26,1.0,3.0,96,0.00,,,0.09,0.000000,,2013-05-08 03:52:00,